• In Uzbekistan
  • List of Countries
  • For 7 days
  • Water Temperature
  • Satellite Maps
  • Weather Map
  • Weather Widgets
  • user-avatar
    Login

    Hourly Weather Tolna

    Today, 20 September, Wednesday

    Time Temperature Precipitation Wind Pressure Humidity
    00:00 +13°C° 0 mm 1 mps 749 mmHg 90%
    01:00 +13°C° 0 mm 2 mps 749 mmHg 94%
    02:00 +13°C° 0 mm 2 mps 749 mmHg 94%
    03:00 +12°C° 0 mm 2 mps 749 mmHg 94%
    04:00 +12°C° 0 mm 2 mps 749 mmHg 94%
    05:00 +13°C° 0 mm 2 mps 749 mmHg 93%
    06:00 +13°C° 0 mm 2 mps 750 mmHg 91%
    07:00 +13°C° 0 mm 2 mps 750 mmHg 90%
    08:00 +13°C° 0 mm 3 mps 750 mmHg 85%
    09:00 +14°C° 0 mm 3 mps 750 mmHg 81%
    10:00 +16°C° 0 mm 3 mps 750 mmHg 76%
    11:00 +15°C° 0.1 mm 4 mps 750 mmHg 74%
    12:00 +17°C° 0.1 mm 4 mps 750 mmHg 72%
    13:00 +16°C° 0.1 mm 5 mps 750 mmHg 69%
    14:00 +16°C° 0.2 mm 5 mps 750 mmHg 71%
    15:00 +15°C° 0.2 mm 5 mps 750 mmHg 72%
    16:00 +15°C° 0.2 mm 5 mps 750 mmHg 74%
    17:00 +14°C° 0 mm 5 mps 751 mmHg 75%
    18:00 +14°C° 0 mm 5 mps 751 mmHg 76%
    19:00 +13°C° 0 mm 5 mps 751 mmHg 77%
    20:00 +13°C° 0.1 mm 5 mps 751 mmHg 78%
    21:00 +13°C° 0.1 mm 6 mps 751 mmHg 78%
    22:00 +11°C° 0.1 mm 6 mps 751 mmHg 78%
    23:00 +11°C° 0.2 mm 6 mps 751 mmHg 79%

    Tomorrow, 21 September, Thursday

    Time Temperature Precipitation Wind Pressure Humidity
    00:00 +11°C° 0.2 mm 6 mps 751 mmHg 79%
    01:00 +10°C° 0.2 mm 6 mps 752 mmHg 80%
    02:00 +10°C° 0.1 mm 6 mps 752 mmHg 79%
    03:00 +10°C° 0.1 mm 7 mps 752 mmHg 78%
    04:00 +10°C° 0.1 mm 7 mps 752 mmHg 78%
    05:00 +11°C° 0 mm 7 mps 752 mmHg 77%
    06:00 +11°C° 0 mm 7 mps 752 mmHg 76%
    07:00 +11°C° 0 mm 7 mps 752 mmHg 75%
    08:00 +13°C° 0 mm 8 mps 752 mmHg 69%
    09:00 +15°C° 0 mm 8 mps 752 mmHg 63%
    10:00 +16°C° 0 mm 8 mps 753 mmHg 57%
    11:00 +17°C° 0 mm 8 mps 753 mmHg 55%
    12:00 +17°C° 0 mm 8 mps 753 mmHg 53%
    13:00 +18°C° 0 mm 8 mps 753 mmHg 51%
    14:00 +17°C° 0 mm 8 mps 753 mmHg 51%
    15:00 +17°C° 0 mm 7 mps 753 mmHg 52%
    16:00 +17°C° 0 mm 7 mps 753 mmHg 53%
    17:00 +16°C° 0 mm 6 mps 753 mmHg 57%
    18:00 +15°C° 0 mm 5 mps 753 mmHg 61%
    19:00 +14°C° 0 mm 3 mps 753 mmHg 65%
    20:00 +14°C° 0 mm 4 mps 754 mmHg 68%
    21:00 +13°C° 0 mm 4 mps 754 mmHg 71%
    22:00 +12°C° 0 mm 4 mps 754 mmHg 75%
    23:00 +12°C° 0 mm 4 mps 754 mmHg 76%

    Day after tomorrow, 22 September, Friday

    Time Temperature Precipitation Wind Pressure Humidity
    00:00 +12°C° 0 mm 4 mps 754 mmHg 77%
    01:00 +12°C° 0 mm 4 mps 755 mmHg 79%
    02:00 +11°C° 0 mm 4 mps 755 mmHg 80%
    03:00 +11°C° 0 mm 4 mps 755 mmHg 81%
    04:00 +11°C° 0 mm 4 mps 755 mmHg 82%
    05:00 +11°C° 0 mm 4 mps 755 mmHg 80%
    06:00 +12°C° 0 mm 4 mps 755 mmHg 77%
    07:00 +12°C° 0 mm 5 mps 756 mmHg 75%
    08:00 +14°C° 0 mm 5 mps 756 mmHg 67%
    09:00 +16°C° 0 mm 5 mps 756 mmHg 59%
    10:00 +19°C° 0 mm 5 mps 756 mmHg 51%
    11:00 +20°C° 0 mm 5 mps 756 mmHg 48%
    12:00 +21°C° 0 mm 5 mps 756 mmHg 46%
    13:00 +22°C° 0 mm 5 mps 756 mmHg 43%
    14:00 +21°C° 0 mm 4 mps 756 mmHg 43%
    15:00 +21°C° 0 mm 4 mps 756 mmHg 44%
    16:00 +21°C° 0 mm 4 mps 756 mmHg 45%
    17:00 +19°C° 0 mm 3 mps 756 mmHg 50%
    18:00 +18°C° 0 mm 2 mps 757 mmHg 56%
    19:00 +16°C° 0 mm 2 mps 757 mmHg 61%
    20:00 +16°C° 0 mm 2 mps 757 mmHg 64%
    21:00 +15°C° 0 mm 2 mps 757 mmHg 66%
    22:00 +15°C° 0 mm 2 mps 758 mmHg 69%
    23:00 +14°C° 0 mm 2 mps 758 mmHg 70%

    23 September, Saturday

    Time Temperature Precipitation Wind Pressure Humidity
    00:00 +14°C° 0 mm 2 mps 758 mmHg 71%
    01:00 +14°C° 0 mm 2 mps 758 mmHg 72%
    02:00 +14°C° 0 mm 2 mps 758 mmHg 73%
    03:00 +13°C° 0 mm 2 mps 758 mmHg 73%
    04:00 +13°C° 0 mm 2 mps 758 mmHg 74%
    05:00 +14°C° 0 mm 2 mps 758 mmHg 72%
    06:00 +14°C° 0 mm 2 mps 758 mmHg 70%
    07:00 +15°C° 0 mm 2 mps 758 mmHg 69%
    08:00 +17°C° 0 mm 3 mps 758 mmHg 62%
    09:00 +19°C° 0 mm 3 mps 758 mmHg 55%
    10:00 +21°C° 0 mm 3 mps 758 mmHg 48%
    11:00 +22°C° 0 mm 4 mps 758 mmHg 46%
    12:00 +23°C° 0 mm 4 mps 758 mmHg 43%
    13:00 +25°C° 0 mm 4 mps 757 mmHg 40%
    14:00 +23°C° 0 mm 4 mps 757 mmHg 41%
    15:00 +23°C° 0 mm 4 mps 757 mmHg 42%
    16:00 +23°C° 0 mm 4 mps 757 mmHg 43%
    17:00 +21°C° 0 mm 3 mps 757 mmHg 49%
    18:00 +19°C° 0 mm 3 mps 757 mmHg 56%
    19:00 +18°C° 0 mm 2 mps 757 mmHg 62%
    20:00 +17°C° 0 mm 2 mps 757 mmHg 64%
    21:00 +16°C° 0 mm 2 mps 757 mmHg 67%
    22:00 +16°C° 0 mm 2 mps 757 mmHg 69%
    23:00 +15°C° 0 mm 2 mps 757 mmHg 71%

    24 September, Sunday

    Time Temperature Precipitation Wind Pressure Humidity
    00:00 +15°C° 0 mm 2 mps 757 mmHg 73%
    01:00 +14°C° 0 mm 2 mps 757 mmHg 74%
    02:00 +14°C° 0 mm 2 mps 757 mmHg 76%
    03:00 +14°C° 0 mm 2 mps 757 mmHg 77%
    04:00 +13°C° 0 mm 2 mps 757 mmHg 78%
    05:00 +14°C° 0 mm 2 mps 757 mmHg 76%
    06:00 +13°C° 0 mm 3 mps 757 mmHg 73%
    07:00 +14°C° 0 mm 3 mps 757 mmHg 70%
    08:00 +15°C° 0 mm 4 mps 757 mmHg 62%
    09:00 +18°C° 0 mm 4 mps 757 mmHg 53%
    10:00 +20°C° 0 mm 5 mps 757 mmHg 44%
    11:00 +21°C° 0 mm 5 mps 757 mmHg 42%
    12:00 +22°C° 0 mm 5 mps 757 mmHg 39%
    13:00 +23°C° 0 mm 5 mps 756 mmHg 37%
    14:00 +23°C° 0 mm 5 mps 756 mmHg 38%
    15:00 +22°C° 0 mm 5 mps 756 mmHg 39%
    16:00 +22°C° 0 mm 5 mps 756 mmHg 41%
    17:00 +20°C° 0 mm 5 mps 756 mmHg 47%
    18:00 +19°C° 0 mm 4 mps 757 mmHg 53%
    19:00 +17°C° 0 mm 3 mps 757 mmHg 59%
    20:00 +16°C° 0 mm 3 mps 757 mmHg 63%
    21:00 +16°C° 0 mm 3 mps 757 mmHg 67%
    22:00 +14°C° 0 mm 3 mps 757 mmHg 72%
    23:00 +14°C° 0 mm 3 mps 758 mmHg 76%

    25 September, Monday

    Time Temperature Precipitation Wind Pressure Humidity
    00:00 +13°C° 0 mm 3 mps 758 mmHg 79%
    01:00 +13°C° 0 mm 3 mps 758 mmHg 83%
    02:00 +13°C° 0 mm 3 mps 758 mmHg 85%
    03:00 +12°C° 0 mm 3 mps 758 mmHg 88%
    04:00 +13°C° 0 mm 2 mps 758 mmHg 91%
    05:00 +13°C° 0 mm 2 mps 758 mmHg 89%
    06:00 +13°C° 0 mm 2 mps 758 mmHg 87%
    07:00 +14°C° 0 mm 2 mps 758 mmHg 85%
    08:00 +15°C° 0 mm 2 mps 758 mmHg 77%
    09:00 +17°C° 0 mm 2 mps 758 mmHg 68%
    10:00 +19°C° 0 mm 2 mps 758 mmHg 60%
    11:00 +20°C° 0.1 mm 2 mps 758 mmHg 57%
    12:00 +21°C° 0.1 mm 2 mps 758 mmHg 54%
    13:00 +23°C° 0.1 mm 1 mps 757 mmHg 50%
    14:00 +22°C° 0.3 mm 1 mps 757 mmHg 51%
    15:00 +22°C° 0.3 mm 1 mps 757 mmHg 51%
    16:00 +22°C° 0.3 mm 1 mps 757 mmHg 52%
    17:00 +21°C° 0.2 mm 1 mps 757 mmHg 58%
    18:00 +19°C° 0.2 mm 1 mps 757 mmHg 65%
    19:00 +18°C° 0.2 mm 1 mps 757 mmHg 71%
    20:00 +16°C° 0.1 mm 1 mps 757 mmHg 73%
    21:00 +16°C° 0.1 mm 1 mps 757 mmHg 76%
    22:00 +15°C° 0.1 mm 1 mps 757 mmHg 78%
    23:00 +15°C° 0.1 mm 1 mps 757 mmHg 80%
    Show more